Weather History for Canadian, TX

Change the Weather History Date:

Friday, September 27, 2013

  Actual Average (KPPA) Record (KPPA)
Temperature  
Mean Temperature 74 °F -  
Max Temperature 84 °F 78 °F 95 °F (1977)
Min Temperature 64 °F 52 °F 36 °F (1970)
Cooling Degree Days 9    
Growing Degree Days 24 (Base 50)    
Moisture  
Dew Point 61 °F    
Average Humidity 62    
Maximum Humidity 95    
Minimum Humidity 49    
Precipitation  
Precipitation 0.48 in - - ()
Sea Level Pressure  
Sea Level Pressure 29.81 in    
Wind  
Wind Speed 17 mph (South)    
Max Wind Speed 28 mph    
Max Gust Speed 38 mph    
Visibility 10 miles    
Events Rain , Thunderstorm    
Averages and records for this station are not official NWS values.
T = Trace of Precipitation, MM = Missing Value Source: NWS Daily Summary

Daily Weather History Graph

Daily Weather History Graph

Search for Another Location

Airport:

Trip Planner

Search our weather history database for the weather conditions in past years. The results will help you decide how hot, cold, wet, or windy it might be!

Date:

Astronomy

Sep. 27, 2013 Rise Set
Actual Time 7:33 AM CDT 7:30 PM CDT
Civil Twilight 7:08 AM CDT 7:56 PM CDT
Nautical Twilight 6:38 AM CDT 8:25 PM CDT
Astronomical Twilight 6:08 AM CDT 8:55 PM CDT
Moon 12:41 AM CDT (9/27) 3:00 PM CDT (9/27)
Length of Visible Light 12h 48m
Length of Day
11h 57m
Last Quarter, 45% of the Moon is Illuminated
Sep 27
Last Quarter
Oct 4
New
Oct 11
First Quarter
Oct 18
Full
Oct 26
Last Quarter

Hourly Weather History & Observations

Time (CDT) Temp. Heat Index Dew Point Humidity Pressure Visibility Wind Dir Wind Speed Gust Speed Precip Events Conditions
12:15 AM 76.8 °F - 56.1 °F 49% 29.79 in 10.0 mi South 23.0 mph 33.4 mph N/A   Clear
12:35 AM 76.6 °F - 55.9 °F 49% 29.80 in 10.0 mi South 27.6 mph 34.5 mph N/A   Clear
12:55 AM 76.6 °F - 56.1 °F 49% 29.81 in 10.0 mi South 25.3 mph 34.5 mph N/A   Clear
1:15 AM 75.9 °F - 56.3 °F 50% 29.81 in 10.0 mi South 21.9 mph 31.1 mph N/A   Clear
1:35 AM 75.2 °F - 56.3 °F 52% 29.81 in 10.0 mi South 21.9 mph 27.6 mph N/A   Clear
1:55 AM 75.2 °F - 56.7 °F 52% 29.81 in 10.0 mi South 19.6 mph 27.6 mph N/A   Clear
2:15 AM 73.8 °F - 56.1 °F 54% 29.81 in 10.0 mi South 23.0 mph 28.8 mph N/A   Clear
2:35 AM 73.4 °F - 55.9 °F 54% 29.82 in 10.0 mi South 20.7 mph 27.6 mph N/A   Clear
2:55 AM 73.0 °F - 54.9 °F 53% 29.81 in 10.0 mi South 24.2 mph 32.2 mph N/A   Clear
3:15 AM 72.5 °F - 54.5 °F 53% 29.81 in 10.0 mi South 21.9 mph 31.1 mph N/A   Clear
3:35 AM 72.5 °F - 54.0 °F 52% 29.81 in 10.0 mi South 23.0 mph 33.4 mph N/A   Clear
3:55 AM 71.6 °F - 53.6 °F 53% 29.82 in 10.0 mi South 15.0 mph 26.5 mph N/A   Clear
4:15 AM 71.2 °F - 53.4 °F 53% 29.85 in 10.0 mi West 4.6 mph - N/A   Clear
4:35 AM 70.0 °F - 53.6 °F 56% 29.85 in 10.0 mi SE 4.6 mph - N/A   Clear
4:55 AM 70.0 °F - 53.8 °F 56% 29.84 in 10.0 mi SSE 10.4 mph - N/A   Clear
5:15 AM 68.7 °F - 53.6 °F 58% 29.84 in 10.0 mi Calm Calm - N/A   Clear
5:35 AM 68.2 °F - 53.8 °F 60% 29.84 in 10.0 mi South 3.5 mph - N/A   Clear
5:55 AM 67.6 °F - 53.8 °F 61% 29.84 in 10.0 mi South 6.9 mph - N/A   Clear
6:15 AM 67.6 °F - 53.8 °F 61% 29.85 in 10.0 mi Calm Calm - N/A   Clear
6:35 AM 66.9 °F - 54.0 °F 63% 29.86 in 10.0 mi Calm Calm - N/A   Clear
6:55 AM 67.5 °F - 53.8 °F 61% 29.86 in 10.0 mi SE 4.6 mph - N/A   Clear
7:15 AM 64.8 °F - 53.8 °F 68% 29.87 in 10.0 mi Calm Calm - N/A   Clear
7:35 AM 65.7 °F - 53.6 °F 65% 29.87 in 10.0 mi ESE 3.5 mph - N/A   Clear
7:55 AM 65.8 °F - 54.0 °F 65% 29.87 in 10.0 mi SSE 9.2 mph - N/A   Clear
8:15 AM 66.6 °F - 54.5 °F 65% 29.88 in 10.0 mi SSE 5.8 mph - N/A   Clear
8:35 AM 67.5 °F - 55.0 °F 64% 29.87 in 10.0 mi South 6.9 mph - N/A   Clear
8:55 AM 68.4 °F - 55.6 °F 64% 29.88 in 10.0 mi South 4.6 mph - N/A   Clear
9:15 AM 70.0 °F - 56.5 °F 62% 29.88 in 10.0 mi SSW 8.1 mph - N/A   Clear
9:35 AM 71.4 °F - 58.1 °F 63% 29.88 in 10.0 mi South 8.1 mph - N/A   Clear
9:55 AM 73.6 °F - 60.8 °F 64% 29.87 in 10.0 mi South 16.1 mph 21.9 mph N/A   Clear
10:15 AM 75.2 °F - 62.2 °F 64% 29.88 in 10.0 mi South 12.7 mph 20.7 mph N/A   Clear
10:35 AM 75.4 °F - 62.8 °F 65% 29.87 in 10.0 mi South 13.8 mph 18.4 mph N/A   Clear
10:55 AM 77.0 °F - 63.5 °F 63% 29.87 in 10.0 mi South 17.3 mph 23.0 mph N/A   Clear
11:15 AM 77.9 °F - 63.7 °F 61% 29.86 in 10.0 mi South 21.9 mph 26.5 mph N/A   Clear
11:35 AM 79.0 °F - 64.6 °F 61% 29.86 in 10.0 mi South 17.3 mph 23.0 mph N/A   Clear
11:55 AM 79.7 °F - 64.9 °F 61% 29.86 in 10.0 mi South 17.3 mph 25.3 mph N/A   Clear
12:15 PM 80.2 °F 82.2 °F 65.5 °F 61% 29.85 in 10.0 mi South 18.4 mph 28.8 mph N/A   Scattered Clouds
12:35 PM 80.8 °F 82.9 °F 66.2 °F 61% 29.85 in 10.0 mi South 16.1 mph 24.2 mph N/A   Scattered Clouds
12:55 PM 80.8 °F 82.6 °F 65.5 °F 59% 29.85 in 10.0 mi South 20.7 mph 27.6 mph N/A   Scattered Clouds
1:15 PM 81.3 °F 83.3 °F 65.8 °F 59% 29.84 in 10.0 mi South 17.3 mph 26.5 mph N/A   Scattered Clouds
1:35 PM 81.7 °F 83.6 °F 65.8 °F 58% 29.83 in 10.0 mi South 19.6 mph 29.9 mph N/A   Scattered Clouds
1:55 PM 80.8 °F 82.8 °F 65.7 °F 60% 29.82 in 10.0 mi South 19.6 mph 26.5 mph N/A   Scattered Clouds
2:15 PM 81.3 °F 83.3 °F 65.8 °F 59% 29.81 in 10.0 mi South 19.6 mph 26.5 mph N/A   Mostly Cloudy
2:35 PM 81.9 °F 83.9 °F 65.8 °F 58% 29.81 in 10.0 mi South 19.6 mph 25.3 mph N/A   Scattered Clouds
2:55 PM 80.8 °F 82.6 °F 65.3 °F 59% 29.80 in 10.0 mi South 18.4 mph 26.5 mph N/A   Scattered Clouds
3:15 PM 82.6 °F 84.5 °F 65.7 °F 56% 29.79 in 10.0 mi South 19.6 mph 27.6 mph N/A   Scattered Clouds
3:35 PM 82.8 °F 84.5 °F 65.1 °F 55% 29.77 in 10.0 mi South 19.6 mph 26.5 mph N/A   Scattered Clouds
3:55 PM 82.6 °F 84.5 °F 65.3 °F 56% 29.77 in 10.0 mi South 19.6 mph 26.5 mph N/A   Clear
4:15 PM 83.1 °F 85.0 °F 65.3 °F 55% 29.77 in 10.0 mi South 17.3 mph 26.5 mph N/A   Scattered Clouds
4:35 PM 83.1 °F 85.0 °F 65.3 °F 55% 29.77 in 10.0 mi South 19.6 mph 26.5 mph N/A   Mostly Cloudy
4:55 PM 84.4 °F 86.3 °F 65.3 °F 53% 29.76 in 10.0 mi South 20.7 mph 27.6 mph N/A   Mostly Cloudy
5:15 PM 84.2 °F 86.1 °F 65.1 °F 53% 29.76 in 10.0 mi South 20.7 mph 27.6 mph N/A   Scattered Clouds
5:35 PM 83.1 °F 85.0 °F 65.3 °F 55% 29.75 in 10.0 mi SSE 19.6 mph - N/A   Clear
5:55 PM 84.2 °F 85.8 °F 64.9 °F 52% 29.74 in 10.0 mi South 18.4 mph 27.6 mph N/A   Clear
6:15 PM 82.9 °F 84.8 °F 65.3 °F 55% 29.74 in 10.0 mi SSE 19.6 mph 24.2 mph N/A   Clear
6:35 PM 82.4 °F 84.2 °F 65.5 °F 56% 29.72 in 10.0 mi SSE 16.1 mph 21.9 mph N/A   Clear
6:55 PM 82.2 °F 84.0 °F 65.1 °F 56% 29.71 in 10.0 mi SSE 16.1 mph 23.0 mph N/A   Clear
7:15 PM 81.9 °F 83.5 °F 64.8 °F 56% 29.72 in 10.0 mi South 23.0 mph 28.8 mph N/A   Clear
7:35 PM 81.5 °F 83.3 °F 64.8 °F 57% 29.72 in 10.0 mi SSE 20.7 mph 26.5 mph N/A   Clear
7:55 PM 81.5 °F 83.1 °F 64.6 °F 56% 29.72 in 10.0 mi SSE 16.1 mph 25.3 mph N/A   Clear
8:15 PM 81.5 °F 83.1 °F 64.4 °F 56% 29.73 in 10.0 mi SSE 18.4 mph 31.1 mph N/A Thunderstorm Thunderstorm
8:35 PM 80.6 °F 82.3 °F 64.8 °F 58% 29.74 in 10.0 mi SSE 21.9 mph 32.2 mph N/A Rain Light Rain
8:55 PM 73.2 °F - 67.3 °F 82% 29.75 in 10.0 mi South 27.6 mph 38.0 mph N/A Rain , Thunderstorm Light Thunderstorms and Rain
9:15 PM 73.0 °F - 63.9 °F 73% 29.75 in 10.0 mi South 19.6 mph 27.6 mph N/A Thunderstorm Scattered Clouds
9:35 PM 70.9 °F - 64.4 °F 80% 29.77 in 10.0 mi South 20.7 mph 28.8 mph N/A Thunderstorm Scattered Clouds
9:55 PM 70.7 °F - 63.9 °F 79% 29.78 in 10.0 mi South 16.1 mph 21.9 mph N/A Thunderstorm Scattered Clouds
10:15 PM 69.1 °F - 64.8 °F 86% 29.77 in 10.0 mi South 11.5 mph 19.6 mph N/A Rain Light Rain
10:35 PM 69.1 °F - 64.4 °F 85% 29.79 in 10.0 mi South 15.0 mph 20.7 mph N/A Rain , Thunderstorm Light Thunderstorms and Rain
10:55 PM 68.9 °F - 66.2 °F 91% 29.80 in 10.0 mi SSW 8.1 mph - 0.13 in Rain , Thunderstorm Light Thunderstorms and Rain
11:15 PM 70.0 °F - 67.1 °F 91% 29.82 in 10.0 mi South 4.6 mph - N/A Rain , Thunderstorm Light Thunderstorms and Rain
11:35 PM 67.5 °F - 65.8 °F 95% 29.82 in 4.0 mi South 12.7 mph 29.9 mph 0.33 in Rain , Thunderstorm Heavy Thunderstorms and Rain
11:55 PM 66.2 °F - 64.2 °F 93% 29.79 in 10.0 mi South 10.4 mph - 0.35 in Rain , Thunderstorm Light Thunderstorms and Rain